Location: Madrid
(40.4167°N, 3.7036°W)
Time: 02:54:19
(UTC+00:00)

ISS - Pass Details

Date: 09 May 2026
Orbit: 414 x 424 km, 51.6° (Epoch: 15 May)

Event Time Altitude Azimuth Distance (km) Brightness Sun altitude
Rises 19:36:42 0° 207° (SSW) 2,334 0.0 -4.0°
Reaches altitude 10° 19:38:57 10° 194° (SSW) 1,476 -1.1 -4.3°
Maximum altitude 19:41:49 27° 134° (SE) 824 -2.8 -4.8°
Drops below altitude 10° 19:44:42 10° 74° (ENE) 1,485 -1.4 -5.3°
Sets 19:46:58 0° 62° (ENE) 2,352 -0.3 -5.7°
